Theta_e
345 352 357 362 360 360 360 359 362 362 362 361 363 363 361 361 361 362 364 362 361 361 360 362 361 360 360 359 358 358 360 358 357 357 358 360 361 362 362 357 361 355 357
348 354 360 365 361 362 362 360 362 361 360 361 362 361 360 360 360 361 361 361 361 360 359 361 361 360 359 358 357 356 357 359 359 356 357 355 356 359 363 361 364 357 358
350 353 357 362 363 361 363 361 362 359 360 360 360 359 358 359 359 359 360 359 358 358 359 359 360 360 358 357 356 355 356 358 361 357 357 353 353 359 358 359 359 360 359
350 352 356 362 363 359 361 361 362 359 359 358 358 358 357 357 358 358 358 359 358 358 357 357 358 358 359 358 356 357 359 356 356 357 352 352 351 360 360 359 360 359 359
351 354 358 363 363 360 360 360 361 359 358 358 358 357 357 357 356 357 356 355 357 358 357 357 357 358 358 359 357 357 357 356 354 355 354 355 352 358 359 358 359 359 359
348 352 361 363 361 361 361 361 360 360 359 358 358 358 358 357 356 356 356 355 355 356 355 356 356 356 357 359 357 357 356 357 358 350 351 352 355 358 356 356 359 355 355
349 355 359 364 364 362 361 361 361 360 360 359 359 358 357 357 359 358 358 357 356 356 355 355 355 355 356 358 358 357 354 354 353 354 349 352 357 360 359 359 359 359 359
347 350 355 361 362 362 362 361 361 361 360 361 360 360 358 358 358 357 357 357 357 356 356 353 356 355 357 357 357 356 352 354 352 351 353 353 360 360 359 359 359 359 359
349 351 353 356 361 362 362 361 361 361 360 359 359 358 358 357 356 358 358 359 358 358 357 356 356 357 357 358 356 356 353 356 353 351 353 355 363 361 360 359 359 359 359
348 349 354 356 354 356 359 363 362 360 360 360 360 360 360 361 360 360 359 359 359 356 357 357 357 358 358 357 356 355 355 357 353 352 352 354 362 359 360 358 359 359 359
346 349 350 355 352 353 356 361 361 361 362 362 361 362 360 360 358 360 361 350 350 354 358 358 358 357 358 356 355 356 357 352 349 353 354 361 363 360 360 359 359 359 359
342 346 348 350 350 351 352 357 359 356 357 360 361 359 361 357 359 358 359 359 355 354 357 360 360 358 357 352 354 356 353 353 351 352 353 361 360 360 359 359 357 358 358
345 347 349 352 352 349 351 354 353 357 362 357 363 362 364 363 361 359 367 367 363 360 357 358 358 355 354 352 354 351 349 355 353 353 352 357 357 360 360 359 359 358 359
345 349 350 353 355 353 352 352 353 355 359 360 360 362 366 369 368 363 360 361 364 360 361 357 356 361 356 357 351 353 355 352 351 350 352 354 354 358 360 361 360 359 358
344 348 350 354 357 355 355 353 356 356 356 357 361 364 364 362 360 362 365 362 360 360 360 360 360 356 361 358 355 353 352 354 351 351 351 355 354 354 359 360 359 359 357
344 346 350 353 357 356 356 359 357 358 361 358 359 363 364 366 362 362 362 360 359 360 356 359 361 360 360 357 357 357 356 357 358 357 355 352 355 357 359 358 358 358 356
343 346 350 353 355 358 359 360 359 357 356 357 362 363 364 364 363 364 359 360 357 361 362 360 360 359 358 356 356 359 357 362 360 358 354 352 354 356 357 353 352 356 356
346 347 351 351 354 358 359 361 359 362 360 360 361 363 364 368 363 365 362 360 362 359 352 352 354 358 354 357 357 363 360 361 360 358 355 353 353 353 353 355 354 357 353
350 349 350 352 351 357 362 362 361 363 361 359 359 363 368 365 367 365 363 365 365 355 353 355 353 358 357 359 356 362 365 354 356 352 352 353 355 357 357 355 356 356 353
351 352 353 352 355 359 360 362 359 358 358 359 361 365 368 367 366 366 361 364 364 355 352 356 358 353 358 358 358 359 353 352 354 357 355 354 355 356 361 359 353 352 352
352 353 353 353 358 357 356 355 354 353 355 356 363 365 367 366 367 365 362 362 360 362 360 358 354 356 359 357 355 361 362 361 356 357 360 358 356 356 359 362 363 364 353
351 353 356 357 360 360 357 357 355 356 361 363 363 364 367 367 367 365 365 364 363 359 361 358 355 351 353 357 353 356 345 349 349 350 354 354 355 355 356 357 359 358 355
350 352 356 359 362 363 364 359 360 361 362 357 356 358 364 367 366 367 366 365 365 363 358 357 353 362 348 348 358 352 345 341 340 352 350 347 348 349 351 352 352 352 352
349 353 356 360 361 363 366 366 368 356 351 351 354 361 362 368 368 367 367 366 365 360 366 354 350 355 360 346 348 351 349 346 344 337 347 346 345 344 343 340 338 337 340
348 350 355 360 364 368 367 372 362 361 354 354 353 364 366 370 368 366 369 365 366 359 361 359 355 358 353 349 349 348 350 347 352 343 336 340 343 341 342 341 336 330 330
345 348 352 359 370 369 368 365 369 366 362 355 355 355 355 364 364 369 366 369 369 364 360 357 357 357 357 357 352 352 346 343 343 343 346 343 340 346 344 342 339 333 331
Wind_Speed
2 3 7 12 13 15 16 16 17 16 15 14 14 16 15 14 14 14 14 14 14 13 13 15 14 13 14 15 15 14 15 15 16 18 17 16 14 13 11 9 9 15 14
6 9 11 13 14 14 14 15 16 15 15 13 13 14 14 13 13 12 13 13 13 13 12 13 12 12 13 15 13 13 14 13 15 17 17 16 13 14 13 15 19 14 13
10 13 12 12 14 14 14 14 14 15 14 12 12 12 11 11 11 9 10 11 11 11 10 10 10 10 12 12 12 11 14 14 14 15 16 9 9 13 14 16 14 13 12
14 14 15 12 13 13 13 12 12 13 14 11 10 10 8 8 9 9 8 8 9 9 8 6 8 7 11 11 12 13 13 10 11 23 8 11 11 12 13 14 12 12 13
11 15 15 13 13 13 12 10 12 11 12 11 10 9 7 7 5 7 6 5 5 6 5 3 4 6 8 11 13 11 11 10 8 8 9 12 8 11 11 11 12 10 10
18 16 13 13 13 13 12 10 11 11 10 10 8 7 7 6 5 4 4 3 2 2 1 1 3 4 7 8 9 8 10 11 10 5 8 9 12 12 9 7 12 12 13
19 16 14 10 11 12 10 10 9 10 10 8 7 7 5 4 4 3 3 2 1 0 1 3 3 4 4 7 10 8 7 8 8 5 5 9 13 13 10 10 10 11 11
18 18 14 11 12 12 11 10 9 7 6 6 5 5 2 2 3 3 3 3 3 3 2 3 4 4 7 6 7 6 4 8 8 7 8 8 13 11 11 11 10 10 10
14 16 12 12 10 11 10 8 7 7 5 5 4 4 3 3 2 3 4 4 2 3 4 3 4 6 7 7 7 6 2 8 1 5 13 10 11 11 10 10 10 9 9
11 10 12 13 13 13 11 9 8 6 7 6 6 5 5 7 7 6 5 7 5 2 2 5 5 6 9 8 6 5 5 10 8 10 4 9 12 11 11 10 9 10 8
13 15 12 18 15 11 14 11 9 8 8 8 9 7 9 7 11 11 15 13 9 4 4 5 6 8 8 8 8 8 9 5 7 4 7 12 10 11 12 11 9 9 9
7 9 14 13 12 7 7 10 10 10 8 9 6 6 7 2 1 8 11 12 10 7 5 7 7 7 10 9 7 8 6 6 5 3 8 12 9 11 12 11 10 9 8
14 8 6 7 5 9 6 6 5 6 3 6 4 5 2 2 1 4 2 2 4 7 5 9 10 8 7 6 6 4 5 2 3 4 11 13 11 10 11 11 11 10 10
13 13 10 11 7 3 5 5 4 6 6 2 6 4 3 1 2 2 2 5 6 6 7 7 7 3 5 7 7 14 12 7 3 5 11 12 11 10 11 12 12 11 9
11 10 10 12 9 6 3 4 2 4 4 6 3 5 6 3 3 1 3 5 5 6 6 3 1 4 2 7 5 6 5 6 2 6 6 13 10 9 10 12 10 10 10
12 12 12 10 11 9 8 4 4 2 4 3 5 6 4 2 3 1 4 2 3 3 4 8 5 4 5 9 6 7 5 3 9 6 6 6 10 8 9 10 10 9 9
11 13 13 10 13 9 7 7 6 6 6 5 3 5 2 2 3 3 1 5 4 6 4 4 3 2 5 7 2 1 3 7 5 6 5 3 6 9 9 9 8 9 10
12 12 11 9 14 10 8 6 5 4 4 4 4 6 6 4 2 4 3 5 3 3 6 3 2 3 2 4 3 5 5 7 6 6 5 3 6 5 8 9 8 7 7
11 12 10 9 12 12 9 6 5 4 3 3 3 6 8 4 6 5 3 6 3 2 3 4 2 3 3 3 2 3 4 6 5 6 8 4 4 2 3 11 8 9 9
12 12 11 11 7 8 8 4 4 3 5 3 2 3 4 6 3 5 5 5 6 1 2 7 6 5 5 4 2 4 6 4 3 4 7 6 7 9 6 7 8 9 10
14 13 13 11 10 8 7 6 6 6 5 4 2 4 1 2 3 3 1 5 6 4 5 2 4 6 3 5 5 5 5 9 10 7 7 5 5 5 6 6 4 4 7
15 15 13 12 11 9 7 5 4 4 4 4 2 4 4 4 2 5 3 3 2 5 4 1 5 2 6 6 5 5 5 3 3 7 6 9 12 8 6 6 7 7 6
16 15 15 14 13 11 10 6 4 4 3 2 5 6 7 4 4 3 3 3 1 6 6 4 5 7 2 3 2 3 2 3 6 1 2 6 5 9 8 8 7 5 5
16 15 14 14 13 12 11 7 7 6 6 6 4 3 3 5 5 4 3 2 3 5 5 4 6 6 5 5 3 5 7 3 3 4 2 4 5 5 6 6 6 5 3
17 16 15 15 14 11 12 10 8 8 6 5 5 3 1 4 5 5 4 2 3 6 5 4 2 5 4 6 4 3 2 7 9 3 6 4 3 6 5 5 6 5 5
16 15 15 15 13 13 12 13 10 8 8 4 4 3 6 4 8 8 5 5 6 2 3 4 3 3 5 7 7 7 4 3 4 6 5 8 7 3 5 4 4 4 5
Wind_Direction
276 217 155 130 126 119 119 125 113 113 114 111 110 104 101 98 92 92 93 91 87 82 80 85 86 90 97 97 100 101 102 104 107 108 108 108 106 95 81 73 130 92 93
153 138 140 129 132 127 120 126 122 121 119 121 116 110 113 108 101 95 95 93 88 83 74 79 86 95 102 99 105 109 109 113 116 122 122 115 99 94 82 68 67 92 93
158 136 135 124 123 122 125 133 130 132 127 128 123 119 119 114 110 105 102 99 96 92 87 87 91 98 102 106 111 115 119 122 136 122 125 113 101 93 90 83 87 91 91
170 147 129 127 126 129 133 134 130 139 137 137 132 126 128 118 116 113 107 106 102 98 99 98 103 99 104 108 114 117 126 144 156 126 219 128 109 105 93 95 100 107 105
171 111 115 130 128 127 130 140 140 142 142 146 146 141 145 131 131 125 119 108 98 90 100 104 108 118 105 117 127 120 134 166 197 205 152 135 133 95 100 114 120 107 96
128 117 130 136 131 135 141 142 142 146 152 157 153 154 162 148 141 140 146 150 125 120 209 153 149 134 122 130 128 128 148 185 199 150 137 75 105 118 118 118 95 98 101
113 123 136 135 137 134 145 149 153 155 159 161 162 180 179 175 159 155 184 173 145 131 225 212 187 143 152 145 132 142 161 209 222 121 138 163 110 126 126 115 116 116 112
139 128 134 136 144 144 144 147 152 146 154 154 170 167 187 139 138 121 199 160 129 110 123 176 163 149 147 157 132 134 191 255 172 155 88 103 118 133 137 132 127 121 120
111 119 133 136 142 147 147 141 152 150 159 119 185 174 158 175 151 149 175 133 114 103 129 146 152 128 141 149 140 156 242 277 57 112 138 125 133 144 137 134 131 132 128
117 134 144 147 164 173 153 156 151 145 151 161 162 162 190 191 172 197 169 53 23 119 153 151 156 142 144 159 154 159 212 251 162 115 102 104 143 148 143 146 144 141 135
155 157 166 163 170 173 134 142 157 164 170 181 182 181 215 204 179 183 137 139 252 277 182 183 176 158 154 173 184 193 238 237 154 104 97 124 137 152 149 153 157 147 150
162 196 161 163 130 155 139 156 177 169 183 189 144 180 243 135 52 59 127 160 202 227 231 191 193 181 190 174 179 206 234 223 108 102 107 124 148 153 154 158 159 162 154
158 205 91 87 120 163 123 191 178 131 216 146 170 218 196 294 40 49 129 169 207 217 231 197 181 214 215 178 184 178 198 124 186 113 124 139 154 163 160 161 164 168 169
173 166 169 146 145 269 138 229 163 154 166 205 153 197 182 76 224 174 171 183 190 200 204 196 208 233 219 238 185 143 183 185 215 190 137 147 158 167 166 170 171 171 174
170 168 165 150 161 178 190 206 171 163 210 156 140 186 145 183 74 286 243 193 171 159 202 136 195 204 180 283 241 206 161 196 229 112 133 147 164 174 169 176 170 172 175
175 163 156 173 159 174 192 188 165 235 140 177 160 138 174 223 122 133 242 181 198 130 82 143 172 183 193 210 233 184 215 145 190 55 101 142 160 179 169 161 171 173 181
182 152 148 174 156 172 173 181 211 182 160 166 110 133 113 297 94 322 292 273 40 110 179 137 190 183 100 242 174 342 120 86 110 144 108 133 164 176 177 177 174 172 181
175 152 156 184 152 169 161 185 204 169 178 177 175 128 151 172 204 254 230 265 65 207 152 134 178 188 333 31 263 61 178 159 129 113 127 177 164 181 194 199 193 178 172
165 161 181 181 172 159 146 191 262 93 251 223 165 120 153 180 188 239 279 93 233 199 351 148 188 223 96 35 111 144 133 86 171 147 174 201 155 297 174 188 187 185 183
155 167 190 172 176 168 156 202 250 192 237 235 217 96 119 185 180 260 100 97 260 226 155 41 357 17 65 89 84 106 124 141 227 187 143 164 208 185 185 183 177 182 194
165 169 183 186 172 184 199 191 204 214 182 218 107 107 177 195 194 247 47 146 254 57 58 57 181 118 117 92 103 91 105 139 150 151 162 159 151 173 176 172 165 190 168
181 176 184 193 180 198 194 202 239 243 198 58 97 129 272 165 188 220 313 142 228 101 125 210 284 229 149 151 134 128 113 90 62 154 166 150 152 143 142 148 147 156 146
185 188 186 192 188 199 237 182 182 295 293 204 204 212 184 203 208 269 153 321 139 296 148 161 234 283 123 151 155 123 180 137 140 135 176 91 108 122 135 129 126 128 138
188 191 193 190 198 198 203 216 202 216 222 207 224 141 126 175 211 227 183 207 236 262 75 166 200 271 245 178 172 153 87 139 130 131 87 99 102 123 121 125 117 108 151
183 187 186 187 194 209 197 240 181 233 204 228 229 88 219 124 222 201 165 199 248 247 122 325 97 240 294 300 238 197 167 183 149 173 142 155 229 139 142 141 134 126 117
180 184 180 180 184 194 195 203 226 205 251 276 196 241 232 203 167 186 180 178 206 241 189 206 190 214 277 333 328 329 169 224 179 160 150 174 169 140 165 138 131 127 133